Total_Precipitation_Accumulation
0.00 0.00 0.01 0.01 0.01 0.02 0.03 0.06 0.14 0.22 0.17 0.25 0.32 0.43 0.58 0.75 0.98 1.02 1.10 1.21 1.43 1.73 2.13 2.80 3.48 4.06 4.72 5.45 5.99 5.85 5.21 4.68 4.07 3.52 2.93 2.75 2.46 2.20 1.94 1.73 1.53 1.49 1.41 1.21
0.01 0.03 0.03 0.02 0.02 0.03 0.04 0.07 0.13 0.18 0.14 0.14 0.26 0.52 0.67 0.76 0.93 0.89 0.91 0.94 1.13 1.48 2.09 2.87 3.49 3.69 3.69 3.94 4.18 3.69 3.47 3.42 3.00 2.66 2.53 2.36 2.12 1.87 1.65 1.53 1.47 1.24 1.18 1.12
0.02 0.04 0.03 0.02 0.03 0.04 0.07 0.09 0.09 0.15 0.16 0.22 0.36 0.69 0.90 0.83 0.82 0.71 0.70 0.91 1.38 1.77 2.21 2.72 2.89 2.90 2.79 2.75 2.73 2.49 2.41 2.67 2.57 2.49 2.38 2.30 2.19 2.06 1.79 1.48 1.41 1.17 1.01 0.99
0.01 0.03 0.03 0.04 0.04 0.04 0.07 0.06 0.04 0.04 0.12 0.34 0.50 0.91 1.07 0.99 0.92 0.65 0.69 1.08 1.58 1.90 2.17 2.16 1.77 1.66 1.80 1.87 1.96 2.18 2.25 2.33 2.22 2.23 2.01 1.80 1.62 1.46 1.34 1.28 1.26 1.25 1.09 0.99
0.03 0.03 0.03 0.04 0.04 0.03 0.04 0.04 0.03 0.05 0.15 0.39 0.65 1.06 1.25 1.03 0.84 0.60 0.57 0.66 1.04 1.25 1.23 1.03 0.89 0.97 1.20 1.44 1.66 2.02 2.10 2.10 1.98 1.91 1.88 1.87 1.75 1.68 1.53 1.46 1.50 1.47 1.43 1.25
0.04 0.04 0.04 0.03 0.03 0.03 0.03 0.04 0.10 0.20 0.37 0.82 0.86 0.95 1.18 0.99 0.78 0.60 0.41 0.45 0.70 0.74 0.59 0.61 0.70 0.89 1.12 1.29 1.39 1.58 1.74 1.91 1.96 1.97 1.99 1.91 1.84 1.85 1.67 1.51 1.42 1.39 1.39 1.30
0.09 0.08 0.06 0.04 0.03 0.04 0.03 0.05 0.25 0.60 0.89 1.01 0.72 0.87 1.16 0.78 0.52 0.40 0.28 0.26 0.29 0.34 0.43 0.60 0.66 0.86 0.97 1.08 1.10 1.19 1.31 1.51 1.63 1.72 1.83 1.85 1.84 1.84 1.65 1.52 1.39 1.34 1.23 1.14
0.14 0.14 0.08 0.04 0.05 0.05 0.04 0.03 0.10 0.21 0.33 0.52 0.68 1.07 1.15 0.75 0.40 0.24 0.19 0.19 0.18 0.23 0.29 0.34 0.38 0.48 0.62 0.79 0.98 1.12 1.16 1.17 1.20 1.26 1.45 1.62 1.63 1.64 1.57 1.57 1.36 1.27 1.19 1.15
0.05 0.04 0.04 0.04 0.05 0.03 0.03 0.03 0.04 0.05 0.08 0.31 0.73 1.01 0.92 0.58 0.40 0.28 0.24 0.24 0.21 0.21 0.28 0.25 0.25 0.31 0.41 0.46 0.61 0.83 0.91 0.92 0.94 1.01 1.15 1.25 1.30 1.40 1.49 1.44 1.29 1.14 1.15 1.17
0.02 0.02 0.03 0.03 0.03 0.04 0.04 0.03 0.03 0.05 0.10 0.23 0.56 1.03 1.17 0.80 0.55 0.39 0.32 0.25 0.21 0.22 0.23 0.26 0.27 0.27 0.29 0.32 0.45 0.62 0.76 0.79 0.82 0.87 0.93 0.93 1.06 1.16 1.28 1.29 1.24 1.11 1.06 1.14
0.02 0.01 0.02 0.03 0.04 0.06 0.05 0.04 0.05 0.06 0.07 0.15 0.41 0.66 0.65 0.68 0.53 0.34 0.31 0.26 0.21 0.22 0.25 0.30 0.25 0.29 0.26 0.25 0.33 0.45 0.62 0.71 0.67 0.71 0.78 0.87 0.96 1.12 1.19 1.16 1.18 1.13 1.10 1.13
0.02 0.01 0.02 0.04 0.06 0.06 0.07 0.07 0.07 0.08 0.08 0.11 0.20 0.34 0.38 0.40 0.43 0.47 0.39 0.33 0.33 0.34 0.27 0.28 0.23 0.26 0.20 0.22 0.28 0.37 0.45 0.53 0.57 0.64 0.74 0.81 0.87 1.00 1.12 1.09 1.13 1.21 1.18 1.16
0.02 0.01 0.03 0.10 0.15 0.14 0.10 0.09 0.08 0.08 0.08 0.08 0.19 0.33 0.33 0.29 0.32 0.38 0.36 0.40 0.42 0.35 0.32 0.26 0.25 0.22 0.18 0.19 0.23 0.30 0.40 0.51 0.56 0.60 0.73 0.81 0.81 0.89 1.03 1.10 1.12 1.16 1.20 1.23
0.02 0.02 0.02 0.08 0.16 0.20 0.19 0.14 0.10 0.07 0.06 0.06 0.11 0.22 0.22 0.32 0.40 0.37 0.39 0.45 0.40 0.26 0.25 0.26 0.23 0.21 0.25 0.25 0.29 0.38 0.49 0.56 0.63 0.60 0.69 0.78 0.83 0.95 1.08 1.13 1.14 1.16 1.15 1.20
0.02 0.02 0.02 0.02 0.06 0.12 0.17 0.16 0.11 0.06 0.05 0.06 0.07 0.13 0.20 0.35 0.46 0.47 0.46 0.47 0.41 0.30 0.28 0.28 0.27 0.28 0.30 0.34 0.38 0.46 0.58 0.60 0.66 0.79 0.88 0.95 0.98 1.06 1.18 1.26 1.21 1.24 1.24 1.24
0.04 0.04 0.03 0.03 0.05 0.08 0.11 0.14 0.10 0.06 0.06 0.05 0.07 0.14 0.25 0.42 0.47 0.49 0.44 0.41 0.38 0.37 0.32 0.30 0.32 0.36 0.36 0.39 0.46 0.52 0.60 0.68 0.84 1.14 1.25 1.25 1.29 1.34 1.35 1.36 1.31 1.37 1.45 1.58
0.11 0.09 0.07 0.05 0.07 0.08 0.13 0.12 0.10 0.09 0.08 0.08 0.12 0.20 0.28 0.39 0.53 0.60 0.52 0.40 0.38 0.36 0.37 0.38 0.40 0.47 0.47 0.50 0.53 0.56 0.61 0.70 0.88 1.11 1.25 1.35 1.38 1.40 1.46 1.47 1.48 1.48 1.55 1.63
0.19 0.19 0.15 0.10 0.10 0.17 0.15 0.14 0.14 0.13 0.13 0.16 0.24 0.34 0.36 0.38 0.45 0.49 0.41 0.40 0.43 0.43 0.47 0.51 0.52 0.58 0.59 0.61 0.62 0.69 0.81 0.93 1.04 1.15 1.27 1.43 1.48 1.52 1.55 1.54 1.47 1.44 1.46 1.46
0.24 0.27 0.24 0.21 0.20 0.18 0.17 0.20 0.21 0.20 0.25 0.28 0.39 0.49 0.53 0.51 0.51 0.60 0.52 0.50 0.50 0.54 0.56 0.60 0.65 0.69 0.76 0.82 0.83 0.87 1.02 1.15 1.21 1.27 1.42 1.53 1.61 1.71 1.64 1.53 1.49 1.39 1.37 1.28
0.29 0.32 0.38 0.32 0.34 0.34 0.26 0.30 0.29 0.31 0.51 0.48 0.53 0.64 0.72 0.72 0.88 0.94 0.71 0.65 0.59 0.56 0.60 0.63 0.74 0.81 0.87 0.99 1.03 1.05 1.11 1.15 1.20 1.24 1.34 1.47 1.55 1.68 1.73 1.64 1.58 1.50 1.48 1.38
0.41 0.44 0.41 0.41 0.43 0.39 0.37 0.35 0.36 0.63 0.86 0.78 0.74 0.73 0.82 0.92 0.86 0.81 0.68 0.66 0.63 0.56 0.57 0.61 0.69 0.82 0.89 0.97 1.07 1.18 1.20 1.12 1.12 1.09 1.10 1.20 1.35 1.49 1.56 1.57 1.53 1.57 1.55 1.46
0.58 0.62 0.58 0.53 0.67 0.76 0.54 0.44 0.63 0.88 0.85 0.93 0.85 0.84 0.89 0.92 0.92 0.86 0.77 0.70 0.63 0.55 0.57 0.63 0.68 0.75 0.86 0.97 1.13 1.27 1.25 1.21 1.17 1.18 1.24 1.27 1.30 1.30 1.28 1.32 1.34 1.41 1.46 1.44
0.76 0.80 0.80 0.79 0.93 0.86 0.62 0.63 0.69 0.71 0.86 0.88 0.84 0.85 0.88 0.87 0.85 0.78 0.69 0.67 0.71 0.65 0.63 0.62 0.68 0.75 0.86 1.03 1.19 1.35 1.34 1.39 1.37 1.33 1.36 1.35 1.34 1.33 1.34 1.31 1.29 1.29 1.25 1.18
0.86 0.71 0.85 1.03 1.16 0.98 0.81 0.72 0.71 0.74 0.79 0.81 0.79 0.85 0.86 0.81 0.74 0.72 0.69 0.66 0.72 0.73 0.69 0.68 0.69 0.74 0.83 0.90 1.00 1.17 1.25 1.31 1.37 1.33 1.25 1.14 1.09 1.09 1.13 1.18 1.18 1.21 1.17 1.13
0.91 0.87 0.96 1.27 1.46 1.33 1.13 0.91 0.82 0.88 0.90 0.94 0.93 0.89 0.85 0.85 0.86 0.91 0.89 0.78 0.71 0.72 0.75 0.74 0.74 0.77 0.81 0.86 0.90 0.98 1.07 1.17 1.33 1.38 1.30 1.23 1.18 1.13 1.11 1.13 1.18 1.16 1.13 1.11
0.79 0.98 1.17 1.45 1.45 1.50 1.39 1.07 0.96 1.03 1.11 1.11 1.04 1.00 0.97 0.96 0.95 0.90 0.86 0.79 0.72 0.69 0.73 0.78 0.83 0.86 0.83 0.84 0.91 0.97 1.07 1.21 1.37 1.38 1.29 1.28 1.27 1.23 1.20 1.16 1.18 1.21 1.09 1.08